When you browse on this site, cookies collect data to enhance your experience and personalize the content and advertising you see.
Visit our Privacy Policy to learn more. By continuing to use the site, you agree to this use of cookies and data.

Hourly Weather Aberdeen

Today, 7 July, Tuesday

Time Temperature Precipitation Wind Pressure Humidity
00:00 +6°C° 0 mm 4 mps 754 mmHg 92%
01:00 +6°C° 0 mm 4 mps 754 mmHg 92%
02:00 +6°C° 0 mm 4 mps 754 mmHg 93%
03:00 +7°C° 0 mm 3 mps 754 mmHg 94%
04:00 +7°C° 0 mm 4 mps 754 mmHg 91%
05:00 +8°C° 0 mm 4 mps 753 mmHg 89%
06:00 +10°C° 0 mm 4 mps 753 mmHg 88%
07:00 +11°C° 0 mm 4 mps 753 mmHg 81%
08:00 +13°C° 0 mm 3 mps 754 mmHg 75%
09:00 +14°C° 0 mm 3 mps 754 mmHg 68%
10:00 +14°C° 0.3 mm 3 mps 753 mmHg 69%
11:00 +15°C° 0.3 mm 2 mps 753 mmHg 69%
12:00 +16°C° 0 mm 2 mps 753 mmHg 70%
13:00 +15°C° 0.4 mm 2 mps 753 mmHg 72%
14:00 +15°C° 0.4 mm 2 mps 753 mmHg 74%
15:00 +14°C° 0.4 mm 3 mps 753 mmHg 76%
16:00 +14°C° 0.4 mm 3 mps 753 mmHg 79%
17:00 +13°C° 0.4 mm 3 mps 753 mmHg 81%
18:00 +13°C° 0.4 mm 3 mps 752 mmHg 84%
19:00 +12°C° 0.1 mm 3 mps 753 mmHg 86%
20:00 +12°C° 0.1 mm 2 mps 753 mmHg 89%
21:00 +10°C° 0.1 mm 2 mps 753 mmHg 91%
22:00 +10°C° 0.2 mm 2 mps 753 mmHg 93%
23:00 +10°C° 0.2 mm 2 mps 753 mmHg 94%

Tomorrow, 8 July, Wednesday

Time Temperature Precipitation Wind Pressure Humidity
00:00 +9°C° 0.2 mm 2 mps 754 mmHg 95%
01:00 +9°C° 0.2 mm 2 mps 754 mmHg 96%
02:00 +9°C° 0.2 mm 2 mps 754 mmHg 96%
03:00 +10°C° 0.2 mm 1 mps 754 mmHg 96%
04:00 +10°C° 0 mm 1 mps 754 mmHg 95%
05:00 +11°C° 0 mm 1 mps 754 mmHg 94%
06:00 +11°C° 0 mm 1 mps 754 mmHg 93%
07:00 +10°C° 0 mm 2 mps 754 mmHg 91%
08:00 +12°C° 0 mm 2 mps 754 mmHg 89%
09:00 +12°C° 0 mm 2 mps 754 mmHg 87%
10:00 +12°C° 0.1 mm 3 mps 754 mmHg 85%
11:00 +12°C° 0.1 mm 3 mps 754 mmHg 83%
12:00 +13°C° 0.1 mm 3 mps 754 mmHg 81%
13:00 +13°C° 0.1 mm 3 mps 754 mmHg 81%
14:00 +13°C° 0.1 mm 4 mps 754 mmHg 81%
15:00 +13°C° 0.1 mm 4 mps 754 mmHg 81%
16:00 +13°C° 0.1 mm 4 mps 753 mmHg 83%
17:00 +13°C° 0.1 mm 4 mps 753 mmHg 84%
18:00 +12°C° 0.1 mm 4 mps 753 mmHg 86%
19:00 +12°C° 0.1 mm 4 mps 753 mmHg 88%
20:00 +11°C° 0.1 mm 3 mps 753 mmHg 91%
21:00 +10°C° 0.1 mm 3 mps 753 mmHg 93%
22:00 +10°C° 0.1 mm 3 mps 753 mmHg 93%
23:00 +10°C° 0.1 mm 3 mps 753 mmHg 94%

Day after tomorrow, 9 July, Thursday

Time Temperature Precipitation Wind Pressure Humidity
00:00 +10°C° 0.1 mm 2 mps 753 mmHg 95%
01:00 +10°C° 0.1 mm 2 mps 752 mmHg 95%
02:00 +10°C° 0.1 mm 2 mps 752 mmHg 96%
03:00 +10°C° 0.1 mm 2 mps 752 mmHg 96%
04:00 +10°C° 0 mm 2 mps 752 mmHg 96%
05:00 +12°C° 0 mm 2 mps 752 mmHg 95%
06:00 +12°C° 0 mm 2 mps 752 mmHg 95%
07:00 +12°C° 0.1 mm 2 mps 752 mmHg 94%
08:00 +13°C° 0.1 mm 2 mps 752 mmHg 93%
09:00 +13°C° 0.1 mm 2 mps 752 mmHg 93%
10:00 +13°C° 0.2 mm 2 mps 752 mmHg 91%
11:00 +13°C° 0.2 mm 3 mps 752 mmHg 89%
12:00 +13°C° 0.2 mm 3 mps 751 mmHg 88%
13:00 +13°C° 0.1 mm 3 mps 751 mmHg 85%
14:00 +14°C° 0.1 mm 4 mps 751 mmHg 82%
15:00 +14°C° 0.1 mm 4 mps 751 mmHg 79%
16:00 +14°C° 0.2 mm 4 mps 751 mmHg 81%
17:00 +13°C° 0.2 mm 4 mps 751 mmHg 83%
18:00 +13°C° 0.2 mm 4 mps 750 mmHg 84%
19:00 +12°C° 0.8 mm 3 mps 751 mmHg 87%
20:00 +12°C° 0.8 mm 2 mps 751 mmHg 90%
21:00 +11°C° 0.8 mm 1 mps 751 mmHg 93%
22:00 +10°C° 1 mm 2 mps 751 mmHg 94%
23:00 +10°C° 1 mm 2 mps 751 mmHg 95%

10 July, Friday

Time Temperature Precipitation Wind Pressure Humidity
00:00 +10°C° 1 mm 2 mps 751 mmHg 95%
01:00 +9°C° 0.2 mm 2 mps 751 mmHg 94%
02:00 +9°C° 0.2 mm 2 mps 751 mmHg 93%
03:00 +9°C° 0.2 mm 2 mps 751 mmHg 93%
04:00 +9°C° 0 mm 2 mps 752 mmHg 91%
05:00 +10°C° 0 mm 2 mps 752 mmHg 90%
06:00 +10°C° 0 mm 2 mps 752 mmHg 88%
07:00 +11°C° 0 mm 3 mps 752 mmHg 82%
08:00 +12°C° 0 mm 3 mps 753 mmHg 75%
09:00 +13°C° 0 mm 4 mps 753 mmHg 68%
10:00 +14°C° 0.1 mm 4 mps 753 mmHg 65%
11:00 +15°C° 0.1 mm 4 mps 754 mmHg 62%
12:00 +16°C° 0.1 mm 3 mps 754 mmHg 60%
13:00 +16°C° 0.2 mm 3 mps 754 mmHg 61%
14:00 +16°C° 0.2 mm 3 mps 754 mmHg 63%
15:00 +16°C° 0.2 mm 3 mps 755 mmHg 65%
16:00 +16°C° 0.3 mm 3 mps 755 mmHg 68%
17:00 +16°C° 0.3 mm 3 mps 755 mmHg 72%
18:00 +14°C° 0.3 mm 3 mps 755 mmHg 75%
19:00 +13°C° 0.1 mm 3 mps 755 mmHg 78%
20:00 +11°C° 0.1 mm 3 mps 756 mmHg 81%
21:00 +10°C° 0.1 mm 3 mps 756 mmHg 84%
22:00 +9°C° 0 mm 3 mps 756 mmHg 86%
23:00 +8°C° 0 mm 3 mps 757 mmHg 88%

11 July, Saturday

Time Temperature Precipitation Wind Pressure Humidity
00:00 +8°C° 0 mm 3 mps 757 mmHg 90%
01:00 +7°C° 0 mm 3 mps 757 mmHg 91%
02:00 +7°C° 0 mm 3 mps 757 mmHg 91%
03:00 +7°C° 0 mm 3 mps 758 mmHg 92%
04:00 +7°C° 0 mm 3 mps 758 mmHg 90%
05:00 +8°C° 0 mm 3 mps 758 mmHg 89%
06:00 +9°C° 0 mm 3 mps 758 mmHg 87%
07:00 +11°C° 0 mm 3 mps 759 mmHg 82%
08:00 +12°C° 0 mm 3 mps 759 mmHg 76%
09:00 +13°C° 0 mm 4 mps 759 mmHg 71%
10:00 +14°C° 0 mm 4 mps 759 mmHg 69%
11:00 +15°C° 0 mm 4 mps 759 mmHg 66%
12:00 +15°C° 0 mm 4 mps 760 mmHg 64%
13:00 +17°C° 0 mm 4 mps 760 mmHg 64%
14:00 +16°C° 0 mm 5 mps 760 mmHg 64%
15:00 +16°C° 0 mm 5 mps 760 mmHg 63%
16:00 +17°C° 0 mm 4 mps 760 mmHg 66%
17:00 +17°C° 0 mm 4 mps 760 mmHg 69%
18:00 +15°C° 0 mm 4 mps 760 mmHg 72%
19:00 +14°C° 0 mm 3 mps 760 mmHg 76%
20:00 +12°C° 0 mm 3 mps 760 mmHg 80%
21:00 +11°C° 0 mm 3 mps 760 mmHg 84%
22:00 +10°C° 0 mm 3 mps 760 mmHg 85%
23:00 +10°C° 0 mm 3 mps 760 mmHg 85%

12 July, Sunday

Time Temperature Precipitation Wind Pressure Humidity
00:00 +9°C° 0 mm 3 mps 760 mmHg 86%
01:00 +9°C° 0 mm 3 mps 760 mmHg 86%
02:00 +9°C° 0 mm 3 mps 760 mmHg 86%
03:00 +9°C° 0 mm 3 mps 760 mmHg 86%
04:00 +9°C° 0 mm 3 mps 760 mmHg 85%
05:00 +10°C° 0 mm 3 mps 760 mmHg 84%
06:00 +10°C° 0 mm 3 mps 760 mmHg 83%
07:00 +10°C° 0.1 mm 3 mps 760 mmHg 84%
08:00 +11°C° 0.1 mm 3 mps 760 mmHg 85%
09:00 +12°C° 0.1 mm 2 mps 760 mmHg 86%
10:00 +12°C° 0 mm 3 mps 760 mmHg 84%
11:00 +14°C° 0 mm 3 mps 760 mmHg 81%
12:00 +15°C° 0 mm 4 mps 760 mmHg 79%
13:00 +15°C° 0 mm 4 mps 760 mmHg 79%
14:00 +15°C° 0 mm 5 mps 760 mmHg 78%
15:00 +16°C° 0 mm 5 mps 759 mmHg 78%
16:00 +15°C° 0 mm 4 mps 759 mmHg 80%
17:00 +15°C° 0 mm 4 mps 759 mmHg 81%
18:00 +14°C° 0 mm 4 mps 759 mmHg 83%
19:00 +14°C° 0 mm 3 mps 759 mmHg 84%
20:00 +13°C° 0 mm 3 mps 759 mmHg 86%
21:00 +13°C° 0 mm 3 mps 759 mmHg 87%
22:00 +13°C° 0 mm 3 mps 759 mmHg 89%
23:00 +12°C° 0 mm 3 mps 758 mmHg 91%
Show more